[[{"header":{"parameterUnit":"m.s-1","parameterCategory":1,"la1":30.2991,"la2":30.254,"lo1":-89.0895,"lo2":-89.0444,"dy":0.0017,"dx":0.0017,"nx":28,"ny":28,"refTime":"2023-07-24T09:00:00:Z","depth":0,"parameterNumber":2,"parameterNumberName":"U-component_of_WINDS"},"data":[0,0,0,0,0,0,0,0,0,0,0,0,0,0,0,0,0,0,0,0,0,0,0,0,0,0,0,0,0,0,0,0,0,0,0,0,0,0,0,0,0,0,0,0,0,0,0,0,0,0,0,0,0,0,0,0,0,0,1.0658,1.066,0,1.0801,1.0803,1.0805,1.0859,1.0859,1.0858,1.0858,1.1008,1.1012,1.1016,0,0,0,0,0,0,0,0,0,0,0,0,0,1.0433,1.0437,1.0658,1.066,1.0662,1.0801,1.0803,1.0805,1.0859,1.0859,1.0858,1.0857,1.1006,1.1012,1.1017,0,0,0,0,0,0,0,0,0,0,0,0,0,1.0549,1.0438,1.0658,1.0705,1.0711,1.0801,1.0803,1.0806,1.0859,1.0859,1.0858,1.0857,1.1005,1.1011,1.1018,1.1072,0,0,1.1038,1.1041,0,0,0,0,0,0,0,0,1.0543,1.0558,1.0697,1.0702,1.0709,1.0812,1.0779,1.0895,1.0859,1.0803,1.0858,1.0857,1.0943,1.0955,1.0983,1.1079,1.1085,1.1038,1.1042,1.1045,1.1047,0,0,0,0,0,0,0,1.0535,1.0552,1.0715,1.0698,1.0706,1.072,1.0736,1.0801,1.0875,1.0808,1.0812,1.0828,1.0946,1.0977,1.0987,1.1087,1.1038,1.1044,1.1048,1.1051,1.1233,1.1234,0,0,0,0,0,0,1.0518,1.0545,1.071,1.0719,1.0622,1.0725,1.0742,1.0779,1.0875,1.0888,1.0829,1.083,1.0966,1.0979,1.0993,1.1062,1.1045,1.1051,1.1055,1.1233,1.1234,1.1235,0,0,0,0,0,0,1.0513,1.0532,1.0705,1.0633,1.0656,1.0729,1.077,1.0782,1.0813,1.089,1.0904,1.0846,1.0966,1.0983,1.1051,1.1068,1.1054,1.106,1.1231,1.1233,1.1234,1.12,0,0,0,0,0,0,1.0507,1.053,1.0551,1.0633,1.066,1.076,1.0771,1.0786,1.0824,1.0827,1.091,1.0923,1.0967,1.1041,1.1058,1.1077,1.1065,1.123,1.1232,1.1234,1.12,1.12,1.12,0,0,0,0,0,1.0498,1.0537,1.0552,1.0572,1.0687,1.0761,1.0776,1.0824,1.0825,1.0847,1.0896,1.0921,1.1063,1.1047,1.1067,1.1088,1.123,1.1232,1.1234,1.12,1.12,1.12,0,0,0,0,0,0,1.0456,1.0548,1.0566,1.0632,1.0688,1.077,1.0799,1.0823,1.088,1.0881,1.094,1.0958,1.1021,1.1062,1.1042,1.1145,1.1148,1.1154,1.1116,1.1117,1.1117,1.1106,1.1071,0,0,0,0,0,1.0454,1.0505,1.0584,1.0634,1.0661,1.0725,1.0759,1.0791,1.0852,1.0876,1.0931,1.0989,1.1047,1.1084,1.1142,1.1206,1.1225,1.123,1.123,1.123,1.1234,1.1271,1.1274,1.1241,1.1241,1.1241,0,0,1.0452,1.0508,1.0537,1.0627,1.0674,1.0727,1.0745,1.0799,1.0839,1.0885,1.0951,1.0993,1.1063,1.1128,1.116,1.1164,1.1247,1.1232,1.1231,1.1236,1.1273,1.1276,1.1279,1.1242,1.1242,1.1242,0,0,1.0473,1.0521,1.0568,1.0614,1.0685,1.0727,1.0738,1.0816,1.0845,1.0913,1.0948,1.0996,1.1095,1.1142,1.118,1.1218,1.1242,1.1235,1.1235,1.127,1.1272,1.1275,1.1288,1.1292,1.1239,1.1239,1.1239,0,1.0461,1.054,1.059,1.0642,1.0681,1.0723,1.0771,1.0814,1.09,1.0926,1.0929,1.1053,1.1103,1.118,1.1189,1.1218,1.1232,1.1226,1.1268,1.1271,1.1274,1.1287,1.1292,1.1238,1.1238,1.1238,1.1238,0,1.0521,1.0576,1.0606,1.0686,1.0728,1.0778,1.0836,1.0872,1.0901,1.0942,1.101,1.1071,1.1142,1.1162,1.1191,1.1244,1.1244,1.1256,1.1261,1.1275,1.1288,1.1294,1.1236,1.1236,1.1237,1.1237,0,0,1.0521,1.0627,1.0637,1.0674,1.0754,1.0798,1.085,1.0917,1.0947,1.1005,1.105,1.1132,1.1144,1.1186,1.122,1.1251,1.1276,1.126,1.1263,1.1261,1.1337,1.1327,1.1332,1.1293,1.1294,1.1295,1.1331,0,1.0553,1.0647,1.0692,1.0766,1.0817,1.0858,1.0903,1.0957,1.0997,1.1047,1.1092,1.1148,1.116,1.1185,1.1217,1.1266,1.1292,1.1264,1.1336,1.1338,1.1317,1.1339,1.1329,1.136,1.1337,1.1338,1.1339,0,1.0603,1.0658,1.0737,1.0811,1.0834,1.0873,1.0938,1.0985,1.1048,1.1075,1.1121,1.1154,1.1211,1.121,1.1289,1.1269,1.1301,1.1329,1.1332,1.1341,1.1339,1.1348,1.1372,1.1376,1.1347,1.1347,1.1346,0,1.0593,1.0689,1.0748,1.0778,1.0866,1.0892,1.093,1.0992,1.1029,1.1087,1.1111,1.1175,1.1209,1.1258,1.1307,1.1303,1.1381,1.1386,1.1406,1.1404,1.1421,1.1419,1.1449,1.1441,1.1441,1.1441,1.1441,0,1.0624,1.0671,1.0745,1.0781,1.0835,1.0887,1.0938,1.0979,1.1034,1.1079,1.1118,1.116,1.1223,1.1273,1.1312,1.1371,1.1387,1.1411,1.1421,1.1407,1.1404,1.1429,1.1428,1.1442,1.1442,1.1442,1.1442,0,1.0623,1.0675,1.0742,1.0819,1.0839,1.0875,1.0941,1.0978,1.1019,1.1076,1.1093,1.1158,1.1219,1.1273,1.1354,1.138,1.144,1.1453,1.1419,1.1424,1.1441,1.1438,1.1488,1.1497,1.1483,1.1483,1.1483,0,1.0639,1.0676,1.0756,1.0789,1.0825,1.0878,1.0916,1.0968,1.1006,1.1079,1.1108,1.1171,1.1224,1.1319,1.1375,1.1436,1.1451,1.1464,1.146,1.1445,1.1451,1.1448,1.1451,1.1463,1.1463,1.1463,1.1463,0,1.0662,1.0686,1.0738,1.08,1.0843,1.0895,1.0947,1.0972,1.1034,1.1075,1.1137,1.1178,1.1259,1.1322,1.1389,1.1429,1.1457,1.1464,1.1471,1.1458,1.1437,1.1448,1.1418,1.1462,1.1462,1.1463,1.1463,1.1463,1.0671,1.0705,1.0766,1.0823,1.0868,1.0915,1.0954,1.0999,1.1051,1.1121,1.1149,1.1212,1.1273,1.1367,1.1406,1.1456,1.1462,1.1473,1.1476,1.1478,1.1475,1.1428,1.1469,1.1469,1.1469,1.1469,1.1469,0,1.0695,1.0736,1.0788,1.086,1.0904,1.0925,1.0984,1.102,1.1075,1.1129,1.118,1.1251,1.1311,1.137,1.1434,1.1463,1.1477,1.1478,1.1476,1.1485,1.1467,1.1454,1.1465,1.1465,1.1465,1.1465,1.1465,1.1465,1.0713,1.0772,1.0802,1.0883,1.0924,1.0985,1.1017,1.1061,1.1105,1.1181,1.1231,1.1269,1.1325,1.1393,1.1449,1.1465,1.1487,1.1484,1.1503,1.1486,1.1486,1.1486,1.1473,1.1488,1.1488,1.1517,1.1517,1.1517]},{"header":{"parameterUnit":"m.s-1","parameterCategory":1,"la1":30.2991,"la2":30.254,"lo1":-89.0895,"lo2":-89.0444,"dy":0.0017,"dx":0.0017,"nx":28,"ny":28,"refTime":"2023-07-24T09:00:00:Z","depth":0,"parameterNumber":3,"parameterNumberName":"V-component_of_WINDS"},"data":[0,0,0,0,0,0,0,0,0,0,0,0,0,0,0,0,0,0,0,0,0,0,0,0,0,0,0,0,0,0,0,0,0,0,0,0,0,0,0,0,0,0,0,0,0,0,0,0,0,0,0,0,0,0,0,0,0,0,2.9879,2.9879,0,2.9852,2.9851,2.9851,2.987,2.9871,2.9872,2.9872,2.9839,2.9838,2.9836,0,0,0,0,0,0,0,0,0,0,0,0,0,2.994,2.9939,2.9879,2.9879,2.9878,2.9852,2.9851,2.9851,2.987,2.9871,2.9872,2.9873,2.984,2.9838,2.9836,0,0,0,0,0,0,0,0,0,0,0,0,0,2.9913,2.9939,2.9879,2.9884,2.9885,2.9852,2.9851,2.9851,2.987,2.9871,2.9872,2.9873,2.9841,2.9838,2.9836,2.9794,0,0,2.9828,2.9827,0,0,0,0,0,0,0,0,2.9915,2.9911,2.9884,2.9884,2.9884,2.9866,2.9861,2.9832,2.9869,2.9875,2.9872,2.9874,2.9847,2.9844,2.9836,2.9793,2.9791,2.9828,2.9826,2.9825,2.9824,0,0,0,0,0,0,0,2.9917,2.9912,2.9868,2.9884,2.9884,2.9886,2.9884,2.9856,2.9854,2.9875,2.9876,2.9873,2.9847,2.9838,2.9835,2.9791,2.9828,2.9825,2.9824,2.9823,2.9709,2.9707,0,0,0,0,0,0,2.9919,2.9914,2.9869,2.9867,2.9903,2.9884,2.9881,2.987,2.9854,2.9853,2.9872,2.9874,2.9842,2.9838,2.9834,2.9782,2.9825,2.9823,2.9821,2.971,2.9708,2.9707,0,0,0,0,0,0,2.992,2.9915,2.987,2.9891,2.9885,2.9882,2.9869,2.9869,2.986,2.9852,2.9851,2.9863,2.9843,2.9837,2.9804,2.9781,2.9822,2.9819,2.9712,2.971,2.9708,2.9679,0,0,0,0,0,0,2.9922,2.9915,2.9901,2.989,2.9884,2.9842,2.9868,2.9868,2.9856,2.9859,2.9844,2.9843,2.9843,2.9807,2.9801,2.9778,2.9817,2.9714,2.9711,2.9708,2.9682,2.9676,2.9671,0,0,0,0,0,2.9924,2.9894,2.99,2.9895,2.9867,2.9841,2.9837,2.984,2.9855,2.9839,2.9833,2.9843,2.9785,2.9804,2.9797,2.9773,2.9715,2.9712,2.9709,2.9685,2.9678,2.9672,0,0,0,0,0,0,2.99,2.9892,2.99,2.9865,2.9854,2.9844,2.9825,2.9832,2.9815,2.9818,2.982,2.9817,2.9781,2.9774,2.9795,2.9731,2.9752,2.9747,2.9736,2.973,2.9724,2.9726,2.9815,0,0,0,0,0,2.9891,2.9873,2.9866,2.9836,2.983,2.9828,2.9817,2.982,2.9808,2.9802,2.9794,2.978,2.9758,2.9744,2.9724,2.9682,2.9677,2.9662,2.9656,2.9652,2.9647,2.9621,2.9613,2.9696,2.9696,2.9696,0,0,2.9872,2.9865,2.9853,2.9831,2.9823,2.9801,2.9824,2.9801,2.9784,2.9798,2.9766,2.9759,2.9743,2.9704,2.9687,2.9697,2.9623,2.9648,2.9644,2.9642,2.9617,2.9609,2.9602,2.9693,2.9694,2.9694,0,0,2.9825,2.9819,2.9793,2.9784,2.9771,2.977,2.9763,2.9752,2.9748,2.9716,2.9726,2.9705,2.9668,2.9655,2.9644,2.9591,2.9598,2.9584,2.9555,2.953,2.9523,2.9518,2.9496,2.9488,2.958,2.958,2.9579,0,2.9802,2.9772,2.9778,2.9753,2.9742,2.9755,2.9727,2.9717,2.9697,2.9688,2.9701,2.9654,2.9644,2.9601,2.9588,2.9579,2.9569,2.9585,2.9524,2.9518,2.9513,2.9492,2.9484,2.9578,2.9578,2.9578,2.9578,0,2.9742,2.9721,2.9701,2.9683,2.9669,2.9643,2.9642,2.9628,2.9632,2.9628,2.9593,2.9582,2.9559,2.9549,2.9553,2.9506,2.9512,2.9525,2.9546,2.9503,2.9484,2.9476,2.9575,2.9576,2.9576,2.9577,0,0,2.9679,2.9665,2.9657,2.9648,2.9634,2.9616,2.9589,2.9568,2.9554,2.9539,2.9515,2.9483,2.9493,2.948,2.9482,2.9461,2.9415,2.9475,2.9475,2.9462,2.9359,2.9348,2.9339,2.9421,2.9419,2.9418,2.936,0,2.963,2.9585,2.9589,2.9545,2.9523,2.9535,2.9511,2.9499,2.9494,2.9474,2.9468,2.9444,2.9462,2.9454,2.9433,2.9425,2.9394,2.943,2.9394,2.9393,2.9396,2.9329,2.9318,2.9264,2.9352,2.9351,2.935,0,2.9567,2.9551,2.9505,2.9493,2.9484,2.9462,2.9442,2.9423,2.9408,2.9406,2.9391,2.9396,2.9365,2.9389,2.9345,2.9369,2.9355,2.9348,2.9346,2.9341,2.9368,2.932,2.9247,2.9238,2.9338,2.9339,2.934,0,2.9522,2.9489,2.9457,2.9449,2.9435,2.9419,2.9411,2.9398,2.9384,2.9365,2.9355,2.9333,2.932,2.9301,2.9298,2.9316,2.9253,2.9277,2.9248,2.9247,2.9232,2.9233,2.9153,2.9227,2.9227,2.9227,2.9228,0,2.9465,2.9436,2.9437,2.9417,2.9383,2.9387,2.9353,2.9347,2.9335,2.9311,2.932,2.9298,2.9297,2.9273,2.9271,2.9233,2.9228,2.9223,2.9222,2.9221,2.9221,2.921,2.9213,2.9225,2.9226,2.9226,2.9226,0,2.9409,2.9409,2.9374,2.9363,2.936,2.9335,2.9324,2.9304,2.93,2.9271,2.9264,2.9257,2.9229,2.9225,2.9193,2.9191,2.9145,2.9149,2.915,2.915,2.912,2.9121,2.9028,2.9015,2.91,2.9099,2.9098,0,2.9372,2.935,2.9336,2.9322,2.9314,2.9292,2.9278,2.928,2.9264,2.9244,2.9225,2.9199,2.9177,2.9131,2.9122,2.9096,2.9098,2.9067,2.9094,2.9093,2.9094,2.9095,2.9091,2.9061,2.906,2.906,2.9059,0,2.9305,2.9306,2.9286,2.9266,2.9249,2.9233,2.9217,2.9204,2.9204,2.9185,2.9158,2.9142,2.9108,2.908,2.9054,2.9044,2.905,2.9051,2.9042,2.9039,2.904,2.9036,2.9133,2.9053,2.9053,2.9054,2.9054,2.9054,2.9255,2.9235,2.9222,2.9199,2.9188,2.9173,2.9153,2.9147,2.9125,2.9098,2.9101,2.9069,2.9051,2.9018,2.9005,2.8979,2.8988,2.8977,2.8973,2.8969,2.8965,2.9046,2.8974,2.8974,2.8975,2.8975,2.8975,0,2.9186,2.9179,2.9158,2.9136,2.9117,2.9128,2.911,2.9093,2.9066,2.905,2.9029,2.8996,2.8968,2.8957,2.8929,2.8909,2.8911,2.8902,2.8902,2.8899,2.896,2.8969,2.8901,2.8901,2.8901,2.8901,2.8901,2.8901,2.9148,2.9114,2.9113,2.9072,2.9064,2.9035,2.9024,2.9009,2.8996,2.8959,2.8937,2.893,2.8915,2.8886,2.886,2.8857,2.8844,2.8833,2.8831,2.8887,2.8895,2.8902,2.891,2.8831,2.8831,2.8772,2.8771,2.8771]}]]